Hourly Weather Barranquilla

Today, 27 October, Tuesday

Time Temperature Precipitation Wind Pressure Humidity
00:00 +28°C° 0 mm 5 mps 753 mmHg 83%
01:00 +28°C° 0 mm 5 mps 753 mmHg 82%
02:00 +28°C° 0 mm 4 mps 752 mmHg 83%
03:00 +27°C° 0 mm 4 mps 752 mmHg 84%
04:00 +27°C° 0 mm 4 mps 752 mmHg 85%
05:00 +27°C° 0 mm 4 mps 753 mmHg 84%
06:00 +28°C° 0 mm 3 mps 753 mmHg 83%
07:00 +28°C° 0 mm 3 mps 753 mmHg 81%
08:00 +29°C° 0 mm 3 mps 753 mmHg 74%
09:00 +31°C° 0 mm 2 mps 754 mmHg 67%
10:00 +34°C° 0 mm 2 mps 754 mmHg 60%
11:00 +34°C° 0 mm 2 mps 753 mmHg 60%
12:00 +34°C° 0 mm 3 mps 753 mmHg 61%
13:00 +34°C° 0 mm 4 mps 752 mmHg 61%
14:00 +34°C° 0.2 mm 4 mps 751 mmHg 64%
15:00 +33°C° 0.2 mm 5 mps 751 mmHg 68%
16:00 +33°C° 0.2 mm 5 mps 750 mmHg 71%
17:00 +32°C° 0 mm 6 mps 751 mmHg 74%
18:00 +30°C° 0 mm 6 mps 751 mmHg 78%
19:00 +30°C° 0 mm 6 mps 751 mmHg 81%
20:00 +29°C° 0 mm 6 mps 752 mmHg 82%
21:00 +29°C° 0 mm 6 mps 753 mmHg 83%
22:00 +29°C° 0 mm 6 mps 753 mmHg 83%
23:00 +29°C° 0.1 mm 5 mps 753 mmHg 84%

Tomorrow, 28 October, Wednesday

Time Temperature Precipitation Wind Pressure Humidity
00:00 +28°C° 0.1 mm 4 mps 752 mmHg 85%
01:00 +28°C° 0.1 mm 4 mps 752 mmHg 85%
02:00 +28°C° 0 mm 4 mps 752 mmHg 86%
03:00 +27°C° 0 mm 3 mps 751 mmHg 87%
04:00 +27°C° 0 mm 3 mps 751 mmHg 89%
05:00 +27°C° 0 mm 3 mps 752 mmHg 88%
06:00 +27°C° 0 mm 3 mps 752 mmHg 87%
07:00 +28°C° 0 mm 3 mps 753 mmHg 86%
08:00 +29°C° 0 mm 3 mps 753 mmHg 78%
09:00 +31°C° 0 mm 3 mps 753 mmHg 71%
10:00 +33°C° 0 mm 3 mps 753 mmHg 63%
11:00 +34°C° 0 mm 2 mps 753 mmHg 60%
12:00 +35°C° 0 mm 2 mps 752 mmHg 58%
13:00 +35°C° 0 mm 2 mps 751 mmHg 55%
14:00 +34°C° 0.5 mm 2 mps 751 mmHg 61%
15:00 +33°C° 0.5 mm 3 mps 750 mmHg 67%
16:00 +31°C° 0.5 mm 3 mps 750 mmHg 73%
17:00 +30°C° 0.3 mm 3 mps 751 mmHg 76%
18:00 +30°C° 0.3 mm 2 mps 751 mmHg 79%
19:00 +29°C° 0.3 mm 2 mps 752 mmHg 83%
20:00 +29°C° 0.4 mm 2 mps 752 mmHg 83%
21:00 +28°C° 0.4 mm 2 mps 752 mmHg 83%
22:00 +28°C° 0.4 mm 2 mps 753 mmHg 83%
23:00 +28°C° 0.6 mm 1 mps 753 mmHg 83%

Day after tomorrow, 29 October, Thursday

Time Temperature Precipitation Wind Pressure Humidity
00:00 +28°C° 0.6 mm 1 mps 752 mmHg 84%
01:00 +28°C° 0.6 mm 1 mps 752 mmHg 84%
02:00 +27°C° 0.3 mm 1 mps 752 mmHg 85%
03:00 +27°C° 0.3 mm 2 mps 752 mmHg 85%
04:00 +27°C° 0.3 mm 2 mps 752 mmHg 86%
05:00 +27°C° 0 mm 2 mps 752 mmHg 86%
06:00 +27°C° 0 mm 2 mps 753 mmHg 86%
07:00 +27°C° 0 mm 2 mps 754 mmHg 86%
08:00 +29°C° 0.2 mm 2 mps 754 mmHg 79%
09:00 +31°C° 0.2 mm 2 mps 754 mmHg 71%
10:00 +32°C° 0.2 mm 2 mps 754 mmHg 64%
11:00 +34°C° 0.2 mm 2 mps 754 mmHg 62%
12:00 +34°C° 0.2 mm 2 mps 753 mmHg 61%
13:00 +34°C° 0.2 mm 2 mps 752 mmHg 59%
14:00 +34°C° 0.4 mm 2 mps 752 mmHg 63%
15:00 +32°C° 0.4 mm 2 mps 751 mmHg 66%
16:00 +32°C° 0.4 mm 2 mps 751 mmHg 69%
17:00 +31°C° 0.1 mm 2 mps 752 mmHg 73%
18:00 +30°C° 0.1 mm 2 mps 752 mmHg 78%
19:00 +29°C° 0.1 mm 2 mps 753 mmHg 82%
20:00 +28°C° 0 mm 2 mps 753 mmHg 82%
21:00 +28°C° 0 mm 1 mps 753 mmHg 82%
22:00 +28°C° 0 mm 1 mps 754 mmHg 82%
23:00 +28°C° 0.5 mm 1 mps 753 mmHg 83%

30 October, Friday

Time Temperature Precipitation Wind Pressure Humidity
00:00 +28°C° 0.5 mm 1 mps 753 mmHg 84%
01:00 +28°C° 0.5 mm 1 mps 753 mmHg 84%
02:00 +27°C° 0.7 mm 1 mps 753 mmHg 84%
03:00 +27°C° 0.7 mm 1 mps 753 mmHg 84%
04:00 +25°C° 0.7 mm 0 mps 753 mmHg 84%
05:00 +26°C° 0.2 mm 0 mps 754 mmHg 83%
06:00 +26°C° 0.2 mm 0 mps 754 mmHg 83%
07:00 +28°C° 0.2 mm 1 mps 754 mmHg 82%
08:00 +30°C° 0.1 mm 1 mps 755 mmHg 75%
09:00 +29°C° 0.1 mm 0 mps 755 mmHg 68%
10:00 +31°C° 0.1 mm 0 mps 755 mmHg 61%
11:00 +33°C° 0.2 mm 1 mps 754 mmHg 62%
12:00 +34°C° 0.2 mm 2 mps 754 mmHg 63%
13:00 +34°C° 0.2 mm 2 mps 753 mmHg 64%
14:00 +33°C° 0.2 mm 3 mps 753 mmHg 66%
15:00 +33°C° 0.2 mm 3 mps 752 mmHg 68%
16:00 +31°C° 0.2 mm 3 mps 752 mmHg 70%
17:00 +30°C° 0 mm 3 mps 753 mmHg 72%
18:00 +30°C° 0 mm 3 mps 753 mmHg 74%
19:00 +29°C° 0 mm 3 mps 754 mmHg 76%
20:00 +29°C° 0.2 mm 3 mps 754 mmHg 77%
21:00 +29°C° 0.2 mm 3 mps 755 mmHg 77%
22:00 +29°C° 0.2 mm 3 mps 755 mmHg 78%
23:00 +28°C° 1.3 mm 3 mps 755 mmHg 80%

31 October, Saturday

Time Temperature Precipitation Wind Pressure Humidity
00:00 +28°C° 1.3 mm 3 mps 754 mmHg 82%
01:00 +28°C° 1.3 mm 3 mps 754 mmHg 85%
02:00 +28°C° 2 mm 3 mps 754 mmHg 85%
03:00 +28°C° 2 mm 3 mps 754 mmHg 86%
04:00 +28°C° 2 mm 3 mps 754 mmHg 87%
05:00 +28°C° 1.9 mm 3 mps 754 mmHg 87%
06:00 +28°C° 1.9 mm 3 mps 754 mmHg 87%
07:00 +28°C° 1.9 mm 3 mps 755 mmHg 88%
08:00 +29°C° 0.7 mm 3 mps 755 mmHg 83%
09:00 +30°C° 0.7 mm 3 mps 755 mmHg 79%
10:00 +31°C° 0.7 mm 3 mps 755 mmHg 75%
11:00 +31°C° 0.6 mm 3 mps 755 mmHg 72%
12:00 +33°C° 0.6 mm 3 mps 754 mmHg 69%
13:00 +33°C° 0.6 mm 3 mps 753 mmHg 67%
14:00 +33°C° 0.3 mm 3 mps 753 mmHg 69%
15:00 +32°C° 0.3 mm 4 mps 752 mmHg 72%
16:00 +32°C° 0.3 mm 4 mps 752 mmHg 74%
17:00 +30°C° 0 mm 4 mps 752 mmHg 76%
18:00 +30°C° 0 mm 4 mps 753 mmHg 79%
19:00 +29°C° 0 mm 4 mps 753 mmHg 81%
20:00 +29°C° 0 mm 4 mps 753 mmHg 81%
21:00 +29°C° 0 mm 4 mps 754 mmHg 82%
22:00 +29°C° 0 mm 4 mps 754 mmHg 82%
23:00 +28°C° 0 mm 4 mps 754 mmHg 84%

1 November, Sunday

Time Temperature Precipitation Wind Pressure Humidity
00:00 +28°C° 0 mm 4 mps 753 mmHg 85%
01:00 +28°C° 0 mm 3 mps 753 mmHg 87%
02:00 +27°C° 0.9 mm 3 mps 753 mmHg 88%
03:00 +27°C° 0.9 mm 3 mps 753 mmHg 88%
04:00 +27°C° 0.9 mm 3 mps 753 mmHg 89%
05:00 +27°C° 0.7 mm 3 mps 753 mmHg 90%
06:00 +27°C° 0.7 mm 4 mps 753 mmHg 91%
07:00 +27°C° 0.7 mm 4 mps 754 mmHg 91%
08:00 +28°C° 0.6 mm 4 mps 754 mmHg 86%
09:00 +29°C° 0.6 mm 4 mps 754 mmHg 81%
10:00 +32°C° 0.6 mm 4 mps 754 mmHg 76%
11:00 +32°C° 1.8 mm 4 mps 754 mmHg 74%
12:00 +33°C° 1.8 mm 3 mps 753 mmHg 72%
13:00 +33°C° 1.8 mm 3 mps 752 mmHg 69%
14:00 +31°C° 2.5 mm 2 mps 752 mmHg 73%
15:00 +31°C° 2.5 mm 2 mps 751 mmHg 77%
16:00 +30°C° 2.5 mm 2 mps 751 mmHg 81%
17:00 +30°C° 1.4 mm 2 mps 751 mmHg 82%
18:00 +29°C° 1.4 mm 2 mps 752 mmHg 83%
19:00 +28°C° 1.4 mm 2 mps 752 mmHg 84%
20:00 +28°C° 0.5 mm 1 mps 753 mmHg 84%
21:00 +28°C° 0.5 mm 1 mps 753 mmHg 85%
22:00 +28°C° 0.5 mm 1 mps 753 mmHg 85%
23:00 +28°C° 2 mm 1 mps 753 mmHg 86%
Show more